This is the latest recevied weather packets stored in our database for station/object N1HQ. If no packets are shown the sender has not sent any weather packets the latest 10 day(s).
| Time | Temp. | Humidity | Pressure | Rain* | Wind** | Luminosity | Snow |
|---|---|---|---|---|---|---|---|
| 1787541702 | 27.78° C | 94% | 1012.9 hPa | 0 mm | - | - | - |
| 1787541402 | 27.78° C | 95% | 1012.9 hPa | 0 mm | - | - | - |
| 1787541102 | 27.22° C | 95% | 1012.9 hPa | 0 mm | - | - | - |
| 1787540856 | 27.22° C | 93% | 1012.7 hPa | 0 mm | - | - | - |
| 1787540566 | 27.22° C | 93% | 1012.7 hPa | 0 mm | - | - | - |
| 1787540273 | 27.78° C | 92% | 1012.9 hPa | 0 mm | - | - | - |
| 1787540014 | 27.78° C | 92% | 1012.8 hPa | 0 mm | - | - | - |
| 1787539762 | 27.78° C | 91% | 1012.8 hPa | 0 mm | - | - | - |
| 1787539512 | 27.78° C | 91% | 1012.8 hPa | 0 mm | - | - | - |
| 1787539268 | 27.78° C | 91% | 1012.8 hPa | 0 mm | - | - | - |
| 1787539013 | 27.78° C | 91% | 1012.8 hPa | 0 mm | - | - | - |
| 1787538753 | 27.78° C | 91% | 1012.8 hPa | 0 mm | - | - | - |
| 1787538498 | 27.78° C | 90% | 1012.8 hPa | 0 mm | - | - | - |
| 1787538222 | 28.33° C | 89% | 1012.8 hPa | 0 mm | - | - | - |
| 1787537928 | 28.33° C | 89% | 1012.8 hPa | 0 mm | - | - | - |
| 1787537642 | 28.33° C | 88% | 1012.8 hPa | 0 mm | - | - | - |
| 1787537368 | 28.89° C | 88% | 1012.8 hPa | 0 mm | - | - | - |
| 1787537098 | 28.89° C | 87% | 1012.9 hPa | 0 mm | - | - | - |
| 1787536843 | 29.44° C | 86% | 1012.7 hPa | 0 mm | - | - | - |
| 1787536555 | 29.44° C | 85% | 1012.8 hPa | 0 mm | - | - | - |
| 1787536308 | 30° C | 84% | 1012.9 hPa | 0 mm | - | - | - |
| 1787536033 | 30° C | 84% | 1012.7 hPa | 0 mm | - | - | - |
| 1787535758 | 30.56° C | 83% | 1012.7 hPa | 0 mm | - | - | - |
| 1787535462 | 30.56° C | 83% | 1012.7 hPa | 0 mm | - | - | - |
| 1787535188 | 30.56° C | 82% | 1012.6 hPa | 0 mm | - | - | - |
* Rain latest hour (hover to see other rain measurements)
** Current wind speed in m/s (hover to see current wind gust speed)